Regional Weather Roundup
Issued by NWS

Home | Current Version | Previous Version | Text Only | Print | Product List | Glossary Off
Versions: 1 2 3 4 5 6 7 8 9 10 11 12 13 14 15 16 17 18 19 20 21 22 23 24 25 26 27 28

000
ASUS45 KCYS 220910
RWRWY

WYOMING REGIONAL WEATHER ROUNDUP
NATIONAL WEATHER SERVICE CHEYENNE WY
300 AM MDT SUN APR 22 2018

NOTE:  "FAIR" INDICATES FEW OR NO CLOUDS BELOW 12,000 FEET
WITH NO SIGNIFICANT WEATHER AND/OR OBSTRUCTIONS TO VISIBILITY.

WYZ001-221000-
YELLOWSTONE NATIONAL PARK

CITY           SKY/WX    TMP DP  RH WIND       PRES   REMARKS
LK YELLOWSTONE   N/A     26  23  88 CALM      30.23F
W YELLOWSTONE  NOT AVBL

$$
WYZ002>013-054>058-071-098>099-221000-
NORTHERN WYOMING

CITY           SKY/WX    TMP DP  RH WIND       PRES   REMARKS
JACKSON        FAIR      28  25  88 N8        30.21  WCI  20
CODY           FAIR      47  26  44 N9        30.16R
GREYBULL       FAIR      43  35  73 NW3       30.06R
WORLAND        FAIR      40  33  76 S8        30.06R WCI  34
SHERIDAN       FAIR      48  33  56 NW15G25   30.15R
BUFFALO        FAIR      49  32  52 NW25G35   30.12R
GILLETTE       FAIR      38  35  89 S16       30.08S WCI  29
HULETT         FAIR      43  34  70 SW9       30.10R
NEWCASTLE      FAIR      36  32  87 SE5       30.15R WCI  32

$$
WYZ014>020-022>026-101>103-221000-
CENTRAL WYOMING

CITY           SKY/WX    TMP DP  RH WIND       PRES   REMARKS
BIG PINEY      FAIR      27  21  78 VRB3      30.23S
PINEDALE       FAIR      30  25  80 NW6       30.23S WCI  24
DUBOIS         FAIR      34  23  64 NW14      30.20S WCI  24
LANDER         FAIR      47  25  42 SW12      30.10F
RIVERTON       FAIR      44  25  47 NW15      30.10S
CASPER         FAIR      31  31 100 CALM      30.12R
DOUGLAS        FOG       31  31 100 S3        30.13R VSB 3/4

$$
WYZ021-027>030-104>119-221000-
SOUTHERN WYOMING

CITY           SKY/WX    TMP DP  RH WIND       PRES   REMARKS
EVANSTON       FAIR      39  23  52 SE7       30.25S WCI  34
KEMMERER       FAIR      36  27  69 NW6       30.25S WCI  31
FORT BRIDGER   FAIR      42  26  53 W7        30.27F
ROCK SPRINGS   FAIR      41  26  55 W13       30.21S
DIXON          FAIR      32  29  90 E5        30.24S WCI  28
RAWLINS          N/A    N/A N/A N/A MISG      30.17R
SARATOGA       FAIR      34  32  93 S8        30.19S WCI  27
LARAMIE        FAIR      26  26 100 SE9       30.16S WCI  17
CHEYENNE       FOG       33  33 100 SW12      30.14S VSB 3/4 WCI  24
TORRINGTON     FAIR      31  31 100 E9        30.13S WCI  23
PINE BLUFFS    PTSUNNY   32  32 100 MISG      30.16S

$$




USA.gov is the U.S. government's official web portal to all federal, state and local government web resources and services.